Caro, MI

5:31 PM EDT on August 19, 2017 (GMT -0400)
Caro

Weather History for KCFS - December, 2012

Change the Weather History Date:

Tuesday, December 4, 2012

  Actual Average (KMBS) Record (KMBS)
Temperature  
Mean Temperature 51 °F -  
Max Temperature 64 °F 37 °F 64 °F (2012)
Min Temperature 38 °F 25 °F 5 °F (2002)
Degree Days  
Heating Degree Days 14    
Growing Degree Days 1 (Base 50)    
Moisture  
Dew Point 42 °F    
Average Humidity 70    
Maximum Humidity 88    
Minimum Humidity 57    
Precipitation  
Precipitation 0.00 in - - ()
Sea Level Pressure  
Sea Level Pressure 29.93 in    
Wind  
Wind Speed 13 mph (WSW)    
Max Wind Speed 18 mph    
Max Gust Speed 26 mph    
Visibility 10 miles    
Events Rain    
Averages and records for this station are not official NWS values.
T = Trace of Precipitation, MM = Missing Value Source: NWS Daily Summary

Daily Weather History Graph

Daily Weather History Graph

Search for Another Location

Airport or City:

Trip Planner

Search our weather history database for the weather conditions in past years. The results will help you decide how hot, cold, wet, or windy it might be!

Date:

Astronomy

Dec. 04, 2012 Rise Set
Actual Time 7:50 AM EST 4:57 PM EST
Civil Twilight 7:18 AM EST 5:30 PM EST
Nautical Twilight 6:42 AM EST 6:05 PM EST
Astronomical Twilight 6:07 AM EST 6:40 PM EST
Moon 10:51 PM EST (12/4) 11:38 AM EST (12/4)
Length of Visible Light 10h 11m
Length of Day
9h 07m
Waning Gibbous, 69% of the Moon is Illuminated
Dec 4
Waning Gibbous
Dec 6
Last Quarter
Dec 13
New
Dec 20
First Quarter
Dec 28
Full

Hourly Weather History & Observations

Time (EST) Temp. Windchill Dew Point Humidity Pressure Visibility Wind Dir Wind Speed Gust Speed Precip Events Conditions
12:15 AM 63.0 °F - 55.4 °F 76% 29.83 in 10.0 mi SSW 18.4 mph 26.5 mph N/A   Mostly Cloudy
12:35 AM 63.5 °F - 55.4 °F 75% 29.83 in 10.0 mi SSW 16.1 mph 24.2 mph N/A   Overcast
12:54 AM 63.5 °F - 55.2 °F 74% 29.83 in 10.0 mi SSW 16.1 mph 26.5 mph N/A   Overcast
1:15 AM 63.3 °F - 54.9 °F 74% 29.82 in 10.0 mi SSW 18.4 mph 26.5 mph N/A   Overcast
1:35 AM 63.3 °F - 54.9 °F 74% 29.82 in 10.0 mi SSW 17.3 mph 26.5 mph N/A   Overcast
1:54 AM 63.3 °F - 54.9 °F 74% 29.82 in 10.0 mi SSW 16.1 mph 23.0 mph N/A   Overcast
2:15 AM 63.5 °F - 55.0 °F 74% 29.82 in 10.0 mi SSW 17.3 mph 21.9 mph N/A   Overcast
2:35 AM 64.0 °F - 55.0 °F 73% 29.83 in 10.0 mi SSW 16.1 mph 26.5 mph N/A   Overcast
2:54 AM 64.0 °F - 55.0 °F 73% 29.83 in 10.0 mi SW 17.3 mph 25.3 mph N/A   Overcast
3:15 AM 64.2 °F - 55.6 °F 73% 29.83 in 10.0 mi SW 13.8 mph 25.3 mph N/A Rain Light Rain
3:55 AM 62.6 °F - 56.3 °F 80% 29.84 in 10.0 mi WSW 11.5 mph 17.3 mph N/A   Light Drizzle
4:15 AM 62.1 °F - 56.1 °F 81% 29.83 in 10.0 mi WSW 16.1 mph 24.2 mph N/A   Overcast
4:34 AM 62.1 °F - 55.6 °F 79% 29.84 in 10.0 mi SW 17.3 mph 26.5 mph N/A   Overcast
4:55 AM 61.7 °F - 55.6 °F 80% 29.84 in 10.0 mi WSW 16.1 mph 24.2 mph N/A   Overcast
5:14 AM 61.2 °F - 55.6 °F 82% 29.84 in 10.0 mi WSW 11.5 mph - N/A   Overcast
5:35 AM 60.1 °F - 55.8 °F 86% 29.85 in 10.0 mi WSW 10.4 mph - N/A   Overcast
5:55 AM 58.6 °F - 53.8 °F 84% 29.87 in 10.0 mi West 16.1 mph 25.3 mph N/A   Overcast
6:14 AM 57.6 °F - 53.4 °F 86% 29.87 in 10.0 mi West 11.5 mph - N/A   Overcast
6:35 AM 56.5 °F - 53.1 °F 88% 29.87 in 10.0 mi West 9.2 mph - N/A   Mostly Cloudy
7:14 AM 54.9 °F - 50.9 °F 86% 29.90 in 7.0 mi West 9.2 mph - N/A   Mostly Cloudy
7:35 AM 54.0 °F - 49.1 °F 84% 29.90 in 10.0 mi West 9.2 mph - N/A   Overcast
7:54 AM 52.9 °F - 47.5 °F 82% 29.92 in 10.0 mi West 8.1 mph - N/A Rain Light Rain
8:15 AM 52.0 °F - 47.8 °F 86% 29.94 in 10.0 mi West 12.7 mph - N/A Rain Light Rain
8:35 AM 50.9 °F - 45.3 °F 81% 29.94 in 10.0 mi West 9.2 mph - N/A Rain Light Rain
8:54 AM 50.5 °F - 46.2 °F 85% 29.94 in 10.0 mi West 8.1 mph - N/A   Light Drizzle
9:15 AM 50.9 °F - 46.4 °F 85% 29.95 in 10.0 mi West 8.1 mph - N/A   Overcast
9:35 AM 50.5 °F - 43.7 °F 77% 29.95 in 10.0 mi WSW 10.4 mph 16.1 mph N/A   Mostly Cloudy
9:54 AM 50.9 °F - 40.6 °F 68% 29.95 in 10.0 mi WSW 10.4 mph - N/A   Mostly Cloudy
10:15 AM 51.1 °F - 42.3 °F 72% 29.95 in 10.0 mi WSW 8.1 mph - N/A   Overcast
10:35 AM 50.7 °F - 40.6 °F 68% 29.95 in 10.0 mi WSW 8.1 mph - N/A   Mostly Cloudy
10:54 AM 50.4 °F - 39.2 °F 66% 29.95 in 10.0 mi SW 6.9 mph - N/A   Mostly Cloudy
11:15 AM 50.2 °F - 38.3 °F 64% 29.95 in 10.0 mi WSW 8.1 mph - N/A   Overcast
11:35 AM 50.2 °F - 37.6 °F 62% 29.94 in 10.0 mi WSW 9.2 mph - N/A   Overcast
11:55 AM 50.2 °F - 37.2 °F 61% 29.94 in 10.0 mi WSW 8.1 mph - N/A   Overcast
12:15 PM 49.6 °F - 36.5 °F 61% 29.92 in 10.0 mi WSW 9.2 mph 17.3 mph N/A   Scattered Clouds
12:34 PM 50.0 °F - 36.9 °F 61% 29.93 in 10.0 mi SW 8.1 mph 17.3 mph N/A   Clear
1:14 PM 50.0 °F - 36.5 °F 60% 29.94 in 10.0 mi WSW 10.4 mph 17.3 mph N/A   Clear
1:35 PM 49.8 °F - 36.5 °F 60% 29.93 in 10.0 mi WSW 10.4 mph 17.3 mph N/A   Clear
1:55 PM 50.0 °F - 36.7 °F 60% 29.93 in 10.0 mi WSW 11.5 mph 17.3 mph N/A   Clear
2:14 PM 50.0 °F - 37.4 °F 62% 29.92 in 10.0 mi SW 10.4 mph 17.3 mph N/A   Clear
2:35 PM 50.5 °F - 37.4 °F 61% 29.93 in 10.0 mi WSW 10.4 mph 17.3 mph N/A   Clear
2:55 PM 50.9 °F - 36.9 °F 59% 29.93 in 10.0 mi SW 10.4 mph - N/A   Clear
3:14 PM 50.0 °F - 36.5 °F 60% 29.93 in 10.0 mi WSW 10.4 mph - N/A   Clear
3:35 PM 50.9 °F - 36.1 °F 57% 29.93 in 10.0 mi WSW 13.8 mph 19.6 mph N/A   Clear
3:55 PM 50.0 °F - 35.2 °F 57% 29.94 in 10.0 mi WSW 11.5 mph - N/A   Clear
4:14 PM 49.5 °F - 36.3 °F 61% 29.95 in 10.0 mi WSW 6.9 mph - N/A   Clear
4:35 PM 48.7 °F - 35.6 °F 60% 29.95 in 10.0 mi WSW 8.1 mph - N/A   Clear
4:54 PM 48.0 °F - 35.2 °F 61% 29.95 in 10.0 mi SW 6.9 mph - N/A   Clear
5:15 PM 47.5 °F - 35.1 °F 62% 29.95 in 10.0 mi WSW 10.4 mph - N/A   Clear
5:35 PM 46.4 °F 42.4 °F 33.3 °F 60% 29.96 in 10.0 mi SW 8.1 mph - N/A   Clear
5:54 PM 46.0 °F 41.9 °F 34.0 °F 63% 29.96 in 10.0 mi SW 8.1 mph - N/A   Clear
6:15 PM 46.4 °F 41.9 °F 32.0 °F 57% 29.97 in 10.0 mi WSW 9.2 mph - N/A   Clear
6:35 PM 46.2 °F 40.8 °F 32.0 °F 58% 29.97 in 10.0 mi WSW 11.5 mph - N/A   Clear
6:54 PM 45.5 °F 39.6 °F 32.4 °F 60% 29.98 in 10.0 mi WSW 12.7 mph 17.3 mph N/A   Clear
7:15 PM 45.0 °F 38.5 °F 32.7 °F 62% 29.98 in 10.0 mi WSW 13.8 mph 17.3 mph N/A   Clear
7:35 PM 44.6 °F 38.8 °F 32.4 °F 62% 29.99 in 10.0 mi WSW 11.5 mph 17.3 mph N/A   Clear
7:54 PM 43.7 °F 38.6 °F 32.5 °F 65% 29.99 in 10.0 mi West 9.2 mph - N/A   Clear
8:15 PM 42.4 °F 38.1 °F 32.5 °F 68% 30.00 in 10.0 mi West 6.9 mph - N/A   Clear
8:34 PM 42.1 °F 36.1 °F 32.5 °F 69% 30.02 in 10.0 mi West 10.4 mph - N/A   Clear
8:54 PM 41.4 °F 36.8 °F 32.2 °F 70% 30.03 in 10.0 mi West 6.9 mph - N/A   Clear
9:15 PM 41.0 °F 35.8 °F 32.0 °F 70% 30.03 in 10.0 mi West 8.1 mph - N/A   Clear
9:34 PM 40.1 °F 35.3 °F 32.0 °F 73% 30.03 in 10.0 mi West 6.9 mph - N/A   Clear
9:55 PM 39.7 °F 34.9 °F 32.0 °F 74% 30.04 in 10.0 mi WNW 6.9 mph - N/A   Clear
10:15 PM 39.7 °F 33.7 °F 31.8 °F 73% 30.05 in 10.0 mi WNW 9.2 mph - N/A   Clear
10:34 PM 39.0 °F 32.8 °F 31.1 °F 73% 30.06 in 10.0 mi WNW 9.2 mph - N/A   Clear
10:55 PM 38.8 °F 33.8 °F 30.2 °F 71% 30.07 in 10.0 mi WNW 6.9 mph - N/A   Clear
11:15 PM 38.3 °F 32.5 °F 29.8 °F 72% 30.07 in 10.0 mi West 8.1 mph - N/A   Clear
11:34 PM 38.8 °F 34.6 °F 29.8 °F 70% 30.08 in 10.0 mi WNW 5.8 mph - N/A   Mostly Cloudy
11:55 PM 39.4 °F 35.2 °F 30.2 °F 70% 30.09 in 10.0 mi WNW 5.8 mph - N/A   Overcast